Tracking 29606 objects as of 18-Sep-2024
HD Live streaming from Space Station
objects crossing your sky now

STARLINK-3668

Track STARLINK-3668 now!
10-day predictions
STARLINK-3668 is classified as:


NORAD ID: 52002
Int'l Code: 2022-025AY
Perigee: 545.6 km
Apogee: 547.9 km
Inclination: 53.2 °
Period: 95.4 minutes
Semi major axis: 6917 km
RCS: Unknown
Launch date: March 9, 2022
Source: United States (US)
Launch site: AIR FORCE EASTERN TEST RANGE (AFETR)
Your satellite tracking list
Your tracking list is empty




NASA's NSSDC Master Catalog

Two Line Element Set (TLE):
1 52002U 22025AY  24261.75883264  .00014827  00000-0  94696-3 0  9997
2 52002  53.2140 274.0266 0001668  92.8535 267.2648 15.08868397139717
Source of the keplerian elements: AFSPC